Weather in Molodezhnyj

Kazakhstan     50°43′33″N   73°31′44″E
temp.,
°C
wind,
m/s
gust,
m/s
humid.,
%
clouds,
%
prec.,
mm/h
press.,
hPa
HPBL,
m
11 may, tue
tue1100:00+9ne5106869 0.0 1016258
03:00+8nne6126654 0.0 1017338
06:00+6nne510755 0.0 1019213
09:00+10nne710580 0.0 1020562
12:00+14nne78455 0.0 10201678
15:00+15n89384 0.0 10202125
18:00+14nne811365 0.0 10212335
21:00+11n475212 0.0 1023128
12 may, wed
wed1200:00+9n46575 0.0 102491
03:00+8nnw34580 0.0 102550
06:00+8nw34593 0.0 102652
09:00+13n56443 0.0 1026668
12:00+16n56325 0.0 10251769
15:00+18nnw67335 0.0 10242165
18:00+18nnw5839100 0.0 10242450
21:00+14nw4753100 0.0 1024121
13 may, thu
thu1300:00+14nnw41053100 0.0 1023226
03:00+13w365599 0.0 1021122
06:00+12nw5965100 0.0 1022318
09:00+14n795284 0.0 10221136
12:00+16n794121 0.0 10221598
15:00+18n794250 0.0 10211825
18:00+16nnw695566 0.0 10221135
21:00+15w4106284 0.0 1021326
14 may, fri
fri1400:00+15nw6116590 0.1 1021487
03:00+12n5118396 0.1 1022397
06:00+10n389358 0.1 1024291
09:00+13nne58645 0.0 1025748
12:00+17nne67461 0.0 10261508
15:00+19nne67395 0.0 10261763
18:00+19nne66373 0.0 10261774
21:00+15nne34501 0.0 102744
15 may, sat
sat1500:00+12ne22525 0.0 102710
03:00+11nw11545 0.0 102710
06:00+11w225537 0.0 102711
09:00+17wnw22395 0.0 1027443
12:00+20nnw33305 0.0 10261402
15:00+22nnw33285 0.0 10241874
18:00+22nnw34310 0.0 10232041
21:00+18wnw11480 0.0 102211